Powrót do katalogu

FENGYUN 1C DEB

AktywnyPO
NORAD 30884·DEBRIS·🇨🇳 China

Wystrzelony May 10, 1999 z Taiyuan Satellite Launch Center

Loading…

Następne Przeloty (najbliższe 24 godziny)

TLE

ŚwieżeSource: Space-Track

Epoka: Sep 14, 2026, 00:33 UTC

1 30884U 99025AXW 26257.02333537  .00006003  00000-0  79543-3 0  9996
2 30884  98.8863 283.5787 0060190 189.0536 170.9593 14.79052211 26975

Śledź FENGYUN 1C DEB w czasie rzeczywistym z AllMySat

Download on the App Store